PBO Station Position Time Series. Reference Frame : NAM14
Format Version,1.1.0
4-character ID,SALN
Station name,McNeese_State_Un
Begin Date, 2010-03-14
End Date, 2014-03-10
Release Date, 2021-02-19
Reference position, 12.6176845922 North Latitude, -86.8560528298 East Longitude, 534.97764 meters elevation,
Date, North (mm), East (mm), Vertical (mm), North Std. Deviation (mm), East Std. Deviation (mm),              Vertical Std. Deviation (mm), Quality,
2010-03-14,0.00, 0.00, 0.00, 1.87, 2.40, 10.34, repro,
2010-03-15,-1.24, 1.39, 14.68, 1.85, 2.44, 10.34, repro,
2010-03-16,0.89, 0.03, 3.79, 1.88, 2.43, 10.26, repro,
2010-03-17,0.33, 4.98, 5.81, 1.97, 2.54, 10.59, repro,
2010-03-18,-1.66, 0.59, -4.74, 1.88, 2.43, 10.28, repro,
2010-03-19,1.13, 2.55, 2.34, 1.86, 2.42, 10.18, repro,
2010-03-20,-0.68, 0.26, -8.00, 1.87, 2.39, 9.97, repro,
2010-03-21,-0.07, -1.94, -9.68, 1.87, 2.40, 10.25, repro,
2010-03-22,-0.97, -2.78, 6.57, 1.87, 2.42, 10.22, repro,
2010-03-23,0.46, -0.36, 23.91, 1.87, 2.46, 10.24, repro,
2010-03-24,0.83, -1.04, 3.12, 1.97, 2.54, 10.71, repro,
2010-03-25,-0.06, 1.15, -0.80, 1.99, 2.50, 10.65, repro,
2010-03-26,-0.90, 1.35, 10.61, 1.90, 2.45, 10.27, repro,
2010-03-27,1.90, -1.63, -2.84, 1.92, 2.55, 10.18, repro,
2010-03-28,-1.80, -1.91, 6.61, 1.94, 2.53, 10.43, repro,
2010-03-29,0.08, -2.95, -4.40, 2.08, 2.63, 11.06, repro,
2010-03-30,-2.18, -3.16, 3.49, 2.05, 2.84, 11.16, repro,
2010-03-31,1.50, 0.40, -5.01, 1.95, 2.47, 10.23, repro,
2010-04-01,1.69, -1.27, 7.81, 1.92, 2.50, 10.31, repro,
2010-04-02,1.68, -1.98, 3.61, 1.97, 2.62, 10.39, repro,
2010-04-03,1.58, 2.51, 2.14, 1.95, 2.55, 10.48, repro,
2010-04-04,1.39, -3.90, 18.85, 2.00, 2.67, 10.75, repro,
2010-04-05,0.90, 0.82, -4.76, 1.96, 2.57, 10.29, repro,
2010-04-06,0.37, 2.01, -0.75, 1.97, 2.53, 10.33, repro,
2010-04-07,-0.96, 0.44, 1.96, 2.03, 2.61, 10.83, repro,
2010-04-08,1.79, 1.75, 1.36, 2.01, 2.64, 11.22, repro,
2010-04-09,-0.10, 0.17, -15.63, 1.99, 2.82, 10.72, repro,
2010-04-10,-2.36, 5.25, 0.76, 2.00, 2.70, 10.81, repro,
2010-04-11,0.71, 0.12, -0.34, 1.92, 2.50, 10.27, repro,
2010-04-12,-1.76, -0.92, -10.92, 2.10, 2.66, 10.91, repro,
2010-04-13,-2.16, -1.95, -8.78, 2.03, 2.61, 11.09, repro,
2010-04-14,-1.67, 3.44, 10.09, 2.01, 2.58, 10.54, repro,
2010-04-15,0.72, -3.23, 6.83, 2.05, 2.69, 11.25, repro,
2010-04-16,-0.41, 3.03, 16.74, 2.04, 2.62, 10.96, repro,
2010-04-17,-3.06, -0.63, -3.17, 1.95, 2.54, 10.43, repro,
2010-04-18,-1.33, -0.86, -1.38, 1.92, 2.57, 10.60, repro,
2010-04-19,-1.45, 0.18, -0.90, 1.99, 2.63, 10.66, repro,
2010-04-20,-1.49, -2.58, -25.05, 2.02, 2.71, 11.33, repro,
2010-04-21,-1.12, -0.04, 0.34, 1.98, 2.61, 11.00, repro,
2010-04-22,1.22, -2.34, -10.53, 1.95, 2.51, 10.35, repro,
2010-04-23,0.96, 1.38, 6.17, 1.96, 2.51, 10.52, repro,
2010-04-24,-0.43, -0.88, 0.71, 1.92, 2.47, 10.34, repro,
2010-04-25,-2.20, 0.07, 4.44, 1.99, 2.55, 10.57, repro,
2010-04-26,-0.38, -0.48, 11.56, 1.95, 2.57, 10.98, repro,
2010-04-27,-0.09, -2.04, 1.27, 2.03, 2.70, 11.31, repro,
2010-04-28,1.78, -2.51, 4.57, 1.99, 2.58, 10.68, repro,
2010-04-29,0.70, -0.68, 3.19, 2.02, 2.73, 11.84, repro,
2010-04-30,-1.12, -0.23, 8.96, 1.98, 2.61, 11.22, repro,
2010-05-01,0.76, 0.17, -10.09, 1.95, 2.52, 10.60, repro,
2010-05-02,1.66, 0.91, -6.99, 1.97, 2.57, 11.04, repro,
2010-05-03,1.12, 1.47, 3.93, 2.09, 2.69, 12.02, repro,
2010-05-04,-3.71, -1.34, -8.13, 1.94, 2.48, 10.35, repro,
2010-05-05,-3.34, -2.45, -15.56, 1.94, 2.47, 10.29, repro,
2010-05-06,0.78, 1.76, 2.37, 1.93, 2.53, 10.53, repro,
2010-05-07,-5.65, -2.63, -10.34, 1.98, 2.60, 11.00, repro,
2010-05-08,-4.93, -2.89, -18.31, 1.94, 2.56, 10.75, repro,
2010-05-09,-4.79, -3.43, -11.35, 1.91, 2.65, 10.77, repro,
2010-05-10,-1.68, -3.88, 4.11, 1.94, 2.54, 10.95, repro,
2010-05-11,-2.58, -5.10, -11.82, 1.90, 2.49, 10.34, repro,
2010-05-12,2.16, -0.24, -1.80, 1.95, 2.63, 11.12, repro,
2010-05-13,-1.14, 1.94, -0.38, 1.95, 2.66, 10.97, repro,
2010-05-14,-4.56, 1.56, 2.31, 1.97, 2.59, 11.05, repro,
2010-05-15,-2.72, -1.29, -22.41, 2.00, 2.63, 11.20, repro,
2010-05-16,-1.89, -1.89, -20.98, 1.89, 2.54, 10.76, repro,
2010-05-17,0.59, -4.88, -13.71, 2.04, 2.79, 11.58, repro,
2010-05-18,2.07, -3.19, -7.82, 1.96, 2.54, 11.00, repro,
2010-05-19,0.74, -2.92, -12.50, 2.05, 2.89, 11.67, repro,
2010-05-20,-0.01, -0.77, -21.28, 2.15, 2.95, 12.18, repro,
2010-05-21,-2.35, -1.23, -17.97, 2.05, 2.67, 11.68, repro,
2010-05-22,2.58, 1.58, 21.27, 2.03, 2.63, 11.55, repro,
2010-05-23,0.78, -2.10, -7.59, 1.99, 2.68, 11.73, repro,
2010-05-24,-0.75, -5.60, -28.67, 1.95, 2.66, 11.55, repro,
2010-05-25,-2.67, -1.51, -23.32, 1.93, 2.64, 11.28, repro,
2010-05-26,-1.77, 6.01, -15.38, 2.14, 3.11, 12.62, repro,
2010-05-27,1.35, 1.80, -28.31, 2.07, 2.76, 12.09, repro,
2010-05-28,-0.02, 2.01, -12.65, 2.06, 2.73, 12.13, repro,
2010-05-29,1.95, 6.59, -5.90, 2.00, 2.77, 11.86, repro,
2010-05-30,4.28, 0.78, -1.07, 2.05, 2.70, 11.90, repro,
2010-05-31,-0.56, -0.94, -18.49, 1.99, 2.68, 11.69, repro,
2010-06-01,-0.58, -2.43, -19.53, 2.02, 2.69, 11.98, repro,
2010-06-02,6.90, -1.35, -5.72, 2.09, 2.87, 12.27, repro,
2010-06-03,-4.08, -3.77, -35.10, 2.07, 3.00, 12.67, repro,
2010-06-04,-4.76, 0.06, -11.92, 2.01, 2.67, 12.04, repro,
2010-06-05,0.96, 0.44, -5.10, 1.99, 2.63, 11.76, repro,
2010-06-06,-5.05, -0.96, -25.78, 1.96, 2.60, 11.47, repro,
2010-06-07,-3.65, -0.64, -28.51, 2.00, 2.77, 11.68, repro,
2010-06-08,1.40, -0.94, -16.49, 1.98, 2.59, 11.58, repro,
2010-06-09,2.25, -0.06, -14.32, 2.20, 2.88, 12.86, repro,
2010-06-10,-1.02, -1.04, -24.62, 1.96, 2.74, 11.64, repro,
2010-06-11,-1.55, 0.07, -25.43, 1.99, 2.70, 11.92, repro,
2010-06-12,-1.71, -0.83, -24.57, 1.94, 2.54, 11.21, repro,
2010-06-13,-1.74, 1.68, -12.63, 2.08, 2.69, 12.08, repro,
2010-06-14,-1.08, -3.41, -25.89, 1.98, 2.58, 11.63, repro,
2010-06-15,0.43, -4.32, -29.33, 2.05, 2.78, 12.36, repro,
2010-06-16,-4.23, 3.87, -21.15, 2.02, 2.62, 11.99, repro,
2010-06-17,-5.06, 4.04, -17.12, 2.03, 2.65, 12.07, repro,
2010-06-18,-2.65, -0.16, -34.22, 1.98, 2.58, 11.54, repro,
2010-06-19,-1.14, -0.38, -17.26, 1.95, 2.60, 11.63, repro,
2010-06-20,-3.16, -0.43, -19.38, 2.00, 2.62, 11.57, repro,
2010-06-21,-2.65, -1.90, -25.93, 1.93, 2.63, 11.54, repro,
2010-06-22,1.24, 0.51, -21.29, 2.03, 2.77, 11.90, repro,
2010-06-23,-2.92, -2.22, -43.48, 1.96, 2.60, 11.67, repro,
2010-06-24,-3.58, -1.71, -33.17, 2.57, 3.17, 14.58, repro,
2010-06-25,-0.07, 5.78, -16.10, 2.11, 2.82, 12.91, repro,
2010-06-26,-2.93, -3.09, -18.32, 2.01, 2.69, 11.93, repro,
2010-06-27,1.26, -0.81, -21.69, 1.99, 2.69, 12.02, repro,
2010-06-28,-2.23, -1.45, -34.63, 1.98, 2.83, 11.94, repro,
2010-06-29,-1.55, -2.64, -28.69, 1.93, 2.55, 11.38, repro,
2010-06-30,-1.60, -1.84, -23.35, 2.07, 2.68, 12.19, repro,
2010-07-01,-1.67, -1.28, -42.97, 2.05, 2.62, 12.33, repro,
2010-07-02,-0.63, -0.63, -27.46, 2.35, 3.27, 14.22, repro,
2010-07-03,-0.58, -1.38, -30.97, 2.03, 2.79, 11.84, repro,
2010-07-04,-3.36, -5.85, -54.37, 2.09, 2.77, 12.33, repro,
2010-07-05,0.71, -0.53, -27.04, 2.00, 2.63, 11.79, repro,
2010-07-06,1.15, -2.15, -40.83, 2.02, 2.76, 12.03, repro,
2010-07-07,1.32, 0.43, -24.45, 1.98, 2.58, 11.62, repro,
2010-07-08,0.20, -1.70, -48.39, 2.04, 2.64, 11.91, repro,
2010-07-09,1.91, -1.57, -24.66, 1.97, 2.61, 11.69, repro,
2010-07-10,-0.27, -4.72, -57.21, 1.94, 2.58, 11.45, repro,
2010-07-11,2.60, -2.89, -34.74, 2.02, 2.64, 11.84, repro,
2010-07-12,-1.61, -0.02, -33.95, 2.00, 2.62, 11.79, repro,
2010-07-13,-0.63, -0.52, -39.66, 2.08, 2.67, 12.12, repro,
2010-07-14,1.35, -1.30, -32.96, 2.05, 2.62, 11.83, repro,
2010-07-15,1.00, -1.67, -28.74, 2.04, 2.65, 11.95, repro,
2010-07-16,-1.05, -5.30, -46.30, 2.12, 2.80, 12.26, repro,
2010-07-17,1.06, -2.98, -22.65, 2.08, 2.90, 12.13, repro,
2010-07-18,1.41, -4.07, -35.20, 2.04, 2.74, 11.87, repro,
2010-07-19,-0.54, 0.69, -34.07, 2.09, 2.73, 12.15, repro,
2010-07-20,-0.46, -1.11, -40.01, 2.01, 2.59, 11.88, repro,
2010-07-21,0.94, 3.47, -16.96, 2.03, 2.64, 12.18, repro,
2010-07-22,-1.35, -0.30, -31.14, 2.03, 2.61, 11.99, repro,
2010-07-23,-2.29, -2.91, -31.12, 2.09, 2.64, 12.07, repro,
2010-07-24,-0.37, -1.74, -36.73, 2.02, 2.59, 11.84, repro,
2010-07-25,0.58, -1.63, -29.81, 2.06, 2.65, 12.04, repro,
2010-07-26,-0.03, -2.86, -54.82, 2.07, 2.60, 12.35, repro,
2010-07-27,-1.96, -1.99, -43.95, 2.05, 2.67, 12.03, repro,
2010-07-28,-0.21, 6.56, -52.06, 2.21, 2.76, 12.79, repro,
2010-07-29,-3.88, 0.14, -58.40, 2.20, 2.74, 12.64, repro,
2010-07-30,1.02, -0.78, -34.09, 2.12, 2.72, 12.73, repro,
2010-07-31,-0.33, -0.22, -33.26, 2.03, 2.64, 12.17, repro,
2010-08-01,-3.11, 1.84, -41.12, 2.15, 2.79, 12.70, repro,
2010-08-02,2.69, 0.64, -26.59, 2.05, 2.67, 12.22, repro,
2010-08-03,-2.62, 1.61, -21.46, 2.11, 2.64, 12.16, repro,
2010-08-04,-2.98, -2.30, -37.78, 2.06, 2.76, 12.10, repro,
2010-08-05,1.48, -0.86, -27.24, 2.06, 2.61, 12.05, repro,
2010-08-06,-1.15, 0.27, -29.94, 2.07, 2.58, 12.16, repro,
2010-08-07,0.49, 0.28, -28.23, 2.05, 2.55, 11.90, repro,
2010-08-08,1.55, -2.64, -40.87, 2.13, 2.63, 12.43, repro,
2010-08-09,-1.80, -1.05, -31.12, 2.12, 2.83, 12.53, repro,
2010-08-10,0.94, -1.21, -46.21, 2.01, 2.54, 11.90, repro,
2010-08-11,-0.33, 3.70, -47.18, 2.03, 2.59, 11.84, repro,
2010-08-12,0.88, -1.45, -20.14, 2.10, 2.76, 12.47, repro,
2010-08-13,-0.80, 4.45, -21.28, 2.04, 2.73, 12.07, repro,
2010-08-14,-3.48, -0.75, -46.55, 2.05, 2.63, 11.99, repro,
2010-08-15,0.44, -0.36, -43.12, 1.98, 2.52, 11.70, repro,
2010-08-16,0.48, 0.52, -27.70, 2.09, 2.76, 12.13, repro,
2010-08-17,-0.07, 3.22, -15.23, 2.07, 2.59, 12.34, repro,
2010-08-18,-4.22, -0.05, -34.67, 2.05, 2.60, 12.11, repro,
2010-08-19,2.09, -0.83, -32.40, 2.16, 2.73, 13.20, repro,
2010-08-20,1.30, 4.71, -32.18, 2.18, 2.71, 12.64, repro,
2010-08-21,3.12, -1.22, -31.43, 2.00, 2.58, 12.07, repro,
2010-08-22,0.93, -0.55, -51.81, 2.03, 2.55, 12.07, repro,
2010-08-23,2.24, 0.17, -30.30, 2.06, 2.57, 12.01, repro,
2010-08-24,-1.30, 3.63, -42.25, 2.07, 2.70, 12.03, repro,
2010-08-25,-0.15, -1.15, -42.54, 2.03, 2.52, 11.98, repro,
2010-08-26,0.69, -2.18, -45.27, 2.18, 2.59, 12.67, repro,
2010-08-27,0.69, -4.63, -47.93, 2.06, 2.58, 12.26, repro,
2010-08-28,-0.31, -2.44, -41.43, 1.97, 2.43, 11.64, repro,
2010-08-29,-0.94, 1.75, -27.25, 1.96, 2.64, 11.98, repro,
2010-08-30,-1.79, -0.44, -26.84, 2.01, 2.50, 12.01, repro,
2010-08-31,2.13, -1.16, -26.30, 2.10, 2.48, 12.32, repro,
2010-09-01,0.26, -1.98, -44.80, 2.03, 2.44, 11.93, repro,
2010-09-02,4.26, 3.12, -35.84, 1.99, 2.48, 11.92, repro,
2010-09-03,1.10, 2.31, -38.81, 1.97, 2.44, 11.70, repro,
2010-09-04,1.54, -0.93, -44.04, 2.00, 2.55, 11.86, repro,
2010-09-05,2.74, 2.19, -21.98, 2.01, 2.44, 11.92, repro,
2010-09-06,-1.07, -0.59, -30.89, 2.08, 2.48, 11.82, repro,
2010-09-07,-4.83, 1.60, -43.50, 2.01, 2.45, 11.97, repro,
2010-09-08,-2.41, 2.89, -28.16, 2.02, 2.47, 11.89, repro,
2010-09-09,0.46, -0.82, -33.22, 2.00, 2.57, 11.88, repro,
2010-09-10,-4.27, 2.43, -34.08, 2.00, 2.41, 11.50, repro,
2010-09-11,-0.66, 2.29, -34.87, 2.13, 2.73, 12.78, repro,
2010-09-12,-3.11, 1.94, -32.77, 2.06, 2.79, 12.45, repro,
2010-09-13,-0.94, 3.01, -37.60, 2.06, 2.61, 12.04, repro,
2010-09-14,3.00, -0.73, -40.31, 2.08, 2.67, 12.30, repro,
2010-09-15,-0.77, 0.91, -41.46, 2.02, 2.51, 11.94, repro,
2010-09-16,-1.93, 0.44, -48.60, 1.98, 2.45, 11.56, repro,
2010-09-17,-1.99, -0.20, -41.75, 1.98, 2.48, 11.71, repro,
2010-09-18,1.57, 1.40, -48.28, 2.06, 2.63, 12.02, repro,
2010-09-19,0.81, -0.39, -36.86, 2.05, 2.54, 11.94, repro,
2010-09-20,1.26, -3.14, -44.81, 1.98, 2.57, 11.56, repro,
2010-09-21,1.34, 0.92, -19.66, 2.08, 2.76, 12.14, repro,
2010-09-22,-2.55, -5.38, -54.71, 2.15, 2.77, 12.22, repro,
2010-09-23,3.06, -3.99, -30.30, 2.11, 2.87, 12.51, repro,
2010-09-24,1.31, -2.90, -45.44, 2.01, 2.51, 11.86, repro,
2010-09-25,3.88, -2.06, -35.53, 2.08, 2.66, 12.48, repro,
2010-09-26,4.01, 0.81, -50.94, 2.14, 2.81, 12.69, repro,
2010-09-27,5.97, 5.93, -54.42, 2.16, 2.85, 13.03, repro,
2010-09-28,0.66, 2.02, -48.21, 2.18, 2.81, 13.23, repro,
2010-09-29,-0.09, -0.76, -43.79, 2.10, 2.71, 12.42, repro,
2010-09-30,-1.04, -2.38, -43.41, 2.06, 2.73, 12.45, repro,
2010-10-01,-0.70, -0.75, -26.56, 2.03, 2.68, 12.20, repro,
2010-10-02,0.14, -0.10, -30.72, 2.05, 2.68, 12.30, repro,
2010-10-03,0.40, -3.44, -40.45, 1.99, 2.65, 11.85, repro,
2010-10-04,-0.07, -7.37, -56.47, 2.07, 2.70, 12.19, repro,
2010-10-05,2.25, -4.04, -52.35, 1.93, 2.64, 11.56, repro,
2010-10-06,-2.50, -1.41, -57.31, 1.96, 2.65, 11.77, repro,
2010-10-07,2.76, 0.41, -56.44, 2.33, 3.21, 13.63, repro,
2010-10-08,-0.48, -0.99, -41.65, 2.01, 2.66, 11.97, repro,
2010-10-09,-2.60, -2.53, -50.16, 2.03, 2.67, 11.91, repro,
2010-10-10,5.20, -1.81, -33.87, 2.02, 2.71, 12.16, repro,
2010-10-11,-0.27, -2.92, -42.12, 2.06, 2.68, 12.31, repro,
2010-10-12,0.77, 2.65, -32.96, 2.02, 2.87, 11.96, repro,
2010-10-13,-2.15, -3.33, -54.42, 1.95, 2.60, 11.60, repro,
2010-10-14,-3.47, -2.21, -40.72, 2.02, 2.67, 11.79, repro,
2010-10-15,-4.80, -1.92, -37.31, 1.96, 2.68, 11.84, repro,
2010-10-16,-5.49, -3.42, -33.55, 1.97, 2.68, 11.77, repro,
2010-10-17,0.89, -4.78, -63.00, 1.99, 2.65, 11.82, repro,
2010-10-18,-0.37, -2.52, -43.00, 1.98, 2.69, 11.98, repro,
2010-10-19,1.66, -0.76, -43.43, 1.98, 2.61, 11.70, repro,
2010-10-20,-1.12, 0.52, -46.84, 1.99, 2.68, 11.89, repro,
2010-10-21,1.61, -2.23, -55.29, 2.08, 2.83, 12.28, repro,
2010-10-22,0.07, -1.00, -34.93, 2.02, 2.74, 12.03, repro,
2010-10-23,-1.49, -3.76, -34.56, 1.99, 2.66, 12.03, repro,
2010-10-24,1.54, -0.51, -27.39, 2.05, 2.70, 12.26, repro,
2010-10-25,0.34, -1.01, -17.09, 1.98, 2.62, 11.62, repro,
2010-10-26,0.47, 1.77, -13.80, 2.01, 2.69, 11.98, repro,
2010-10-27,4.91, -0.09, -18.44, 1.97, 2.70, 11.71, repro,
2010-10-28,0.17, -1.79, -34.97, 1.97, 2.68, 11.61, repro,
2010-10-29,-3.97, -1.81, -57.68, 1.93, 2.64, 11.48, repro,
2010-10-30,-3.11, -2.71, -30.07, 1.97, 2.68, 11.61, repro,
2010-10-31,-3.23, -3.06, -49.67, 2.03, 2.74, 11.90, repro,
2010-11-01,-3.96, -1.62, -45.10, 2.06, 2.90, 12.40, repro,
2010-11-02,0.70, -0.66, -31.73, 1.94, 2.66, 11.58, repro,
2010-11-03,1.62, 1.45, -32.71, 2.05, 2.71, 11.99, repro,
2010-11-04,-2.11, -2.66, -50.40, 2.16, 3.09, 13.13, repro,
2010-11-05,-0.90, 1.14, -22.21, 2.08, 2.75, 12.13, repro,
2010-11-06,-2.15, -2.10, -42.51, 1.98, 2.63, 11.58, repro,
2010-11-07,-0.97, 0.64, -34.45, 1.94, 2.62, 11.48, repro,
2010-11-08,-1.37, -0.42, -33.31, 1.93, 2.62, 11.47, repro,
2010-11-09,-3.49, -2.71, -48.49, 1.96, 2.59, 11.32, repro,
2010-11-10,2.12, -3.39, -26.17, 1.98, 2.64, 11.64, repro,
2010-11-11,-2.13, -0.72, -44.11, 1.97, 2.63, 11.53, repro,
2010-11-12,-2.59, 0.52, -41.33, 1.95, 2.63, 11.59, repro,
2010-11-13,-1.68, -0.93, -42.85, 1.95, 2.62, 11.63, repro,
2010-11-14,-3.48, -0.41, -45.74, 1.97, 2.65, 11.52, repro,
2010-11-15,-0.42, 1.44, -37.21, 1.98, 2.67, 11.54, repro,
2010-11-16,-2.82, -0.23, -51.61, 2.14, 2.88, 12.71, repro,
2010-11-17,-1.61, 1.76, -42.24, 1.96, 2.70, 11.76, repro,
2010-11-18,-2.56, -2.26, -48.99, 1.96, 2.68, 11.60, repro,
2010-11-19,-4.70, -0.20, -40.45, 2.08, 2.82, 12.00, repro,
2010-11-20,-3.95, 1.40, -32.87, 2.01, 2.67, 11.44, repro,
2010-11-21,0.07, -1.77, -35.50, 2.00, 2.68, 12.06, repro,
2010-11-22,-2.93, 1.52, -29.51, 1.99, 2.67, 12.13, repro,
2010-11-23,-2.01, -2.02, -35.52, 1.96, 2.65, 11.53, repro,
2010-11-24,-3.12, -1.35, -41.61, 1.98, 2.61, 11.50, repro,
2010-11-25,-0.20, 0.69, -33.99, 1.93, 2.61, 11.46, repro,
2010-11-26,-0.20, 0.47, -44.54, 1.99, 2.65, 11.94, repro,
2010-11-27,-2.18, -1.04, -38.26, 1.92, 2.63, 11.50, repro,
2010-11-28,-2.48, -2.57, -37.90, 1.97, 2.62, 11.68, repro,
2010-11-29,-1.78, -0.91, -34.06, 1.97, 2.67, 11.80, repro,
2010-11-30,-1.41, 1.21, -35.97, 1.93, 2.61, 11.43, repro,
2010-12-01,-0.26, -1.16, -25.56, 1.97, 2.67, 11.80, repro,
2010-12-02,-7.19, -2.97, -40.79, 1.95, 2.63, 11.67, repro,
2010-12-03,-9.48, 0.33, -31.32, 1.94, 2.65, 11.62, repro,
2010-12-04,-4.79, 0.51, -31.50, 1.92, 2.63, 11.54, repro,
2010-12-05,-3.14, -0.24, -38.07, 1.96, 2.61, 11.56, repro,
2010-12-06,-3.38, 0.18, -20.30, 1.95, 2.66, 11.77, repro,
2010-12-07,-7.81, -2.14, -47.23, 1.97, 2.64, 11.56, repro,
2010-12-08,-2.17, 0.67, -42.90, 1.94, 2.59, 11.45, repro,
2010-12-09,-4.97, 2.45, -41.92, 1.96, 2.65, 11.59, repro,
2010-12-10,-4.70, -2.32, -38.43, 1.95, 2.62, 11.55, repro,
2010-12-11,-1.31, 1.52, -22.39, 1.92, 2.59, 11.54, repro,
2010-12-12,-0.98, 1.92, -21.55, 1.94, 2.61, 11.48, repro,
2010-12-13,-3.35, -3.30, -42.25, 1.93, 2.60, 11.22, repro,
2010-12-14,-1.66, 1.24, -26.95, 1.96, 2.63, 11.57, repro,
2010-12-15,-1.62, 1.16, -25.39, 2.01, 2.62, 11.68, repro,
2010-12-16,-2.09, 1.74, -30.62, 2.00, 2.67, 11.95, repro,
2010-12-17,-4.31, 1.78, -21.44, 2.03, 2.68, 11.74, repro,
2010-12-18,-4.39, -0.70, -38.11, 2.00, 2.64, 11.79, repro,
2010-12-19,-0.53, 2.04, -39.33, 2.01, 2.66, 11.81, repro,
2010-12-20,-2.87, 1.12, -33.00, 2.01, 2.69, 11.88, repro,
2010-12-21,-4.04, 2.04, -21.54, 1.99, 2.66, 11.70, repro,
2010-12-22,-3.71, 3.21, -22.25, 1.96, 2.67, 11.74, repro,
2010-12-23,-4.34, 0.35, -32.61, 2.03, 2.65, 11.91, repro,
2010-12-24,-5.21, 0.41, -33.21, 1.96, 2.63, 11.42, repro,
2010-12-25,-4.66, -1.46, -37.40, 1.98, 2.60, 11.38, repro,
2010-12-26,-4.43, 5.56, -17.79, 1.95, 2.64, 11.37, repro,
2010-12-27,-4.37, 1.17, -33.07, 1.93, 2.60, 11.31, repro,
2010-12-28,-0.46, 0.81, -27.39, 2.01, 2.64, 11.78, repro,
2010-12-29,-3.63, 2.23, -26.42, 2.04, 2.69, 12.05, repro,
2010-12-30,-4.89, 2.13, -35.78, 2.07, 2.70, 11.86, repro,
2010-12-31,-2.07, 1.37, -38.55, 1.96, 2.64, 11.50, repro,
2011-01-01,-5.08, 1.12, -38.85, 2.10, 2.70, 12.45, repro,
2011-01-02,-3.90, -1.32, -35.85, 2.08, 2.69, 12.58, repro,
2011-01-03,-5.77, -3.93, -21.32, 2.01, 2.65, 11.86, repro,
2011-01-04,-5.13, -0.31, -26.81, 2.03, 2.65, 11.56, repro,
2011-01-05,-4.59, 1.34, -12.94, 1.92, 2.61, 11.26, repro,
2011-01-06,-3.23, 0.34, -34.37, 1.97, 2.66, 11.52, repro,
2011-01-07,-1.90, -0.85, -43.67, 1.96, 2.65, 11.69, repro,
2011-01-08,-2.95, 1.72, -29.90, 1.93, 2.61, 11.37, repro,
2011-01-09,-4.00, 2.36, -24.02, 1.95, 2.63, 11.45, repro,
2011-01-10,-5.19, 1.41, -36.08, 1.98, 2.64, 11.71, repro,
2011-01-11,-7.54, -0.04, -48.63, 2.03, 2.64, 11.79, repro,
2011-01-12,-7.65, 1.50, -29.54, 1.95, 2.64, 11.33, repro,
2011-01-13,-6.24, 1.18, -26.49, 1.99, 2.81, 11.48, repro,
2011-01-14,-5.63, -3.33, -42.35, 1.89, 2.57, 11.05, repro,
2011-01-15,-2.41, 0.99, -29.59, 1.89, 2.59, 11.11, repro,
2011-01-16,-1.39, 1.25, -34.75, 1.93, 2.81, 11.38, repro,
2011-01-17,-2.91, 0.46, -41.75, 2.06, 2.83, 11.76, repro,
2011-01-18,-0.88, -1.32, -35.41, 1.95, 2.58, 11.55, repro,
2011-01-19,-2.86, -1.36, -43.90, 1.95, 2.58, 11.49, repro,
2011-01-20,-2.78, -0.57, -37.48, 1.96, 2.81, 11.66, repro,
2011-01-21,-1.06, -0.56, -31.47, 1.90, 2.57, 11.19, repro,
2011-01-22,-3.54, -1.93, -40.73, 1.96, 2.68, 11.43, repro,
2011-01-23,-2.33, -2.27, -40.93, 1.96, 2.59, 11.33, repro,
2011-01-24,-2.04, 3.87, -49.67, 2.04, 2.92, 12.28, repro,
2011-01-25,-2.96, 2.01, -33.57, 1.94, 2.60, 11.31, repro,
2011-01-26,-7.35, 0.42, -46.36, 2.10, 3.02, 13.02, repro,
2011-01-27,-8.77, -4.16, -37.99, 2.12, 2.79, 12.19, repro,
2011-01-28,-3.62, 2.49, -28.94, 1.95, 2.62, 11.25, repro,
2011-01-29,-5.18, -2.03, -41.16, 1.91, 2.59, 11.02, repro,
2011-01-30,-2.15, -1.04, -14.91, 1.95, 2.66, 11.25, repro,
2011-01-31,-0.53, 0.70, -48.81, 1.97, 2.65, 11.55, repro,
2011-02-01,-5.69, 1.25, -34.49, 1.92, 2.78, 11.32, repro,
2011-02-02,-3.81, 3.08, -42.22, 1.95, 2.57, 11.23, repro,
2011-02-03,-2.20, -4.38, -54.39, 2.02, 2.70, 11.58, repro,
2011-02-04,-2.13, 1.95, -23.48, 1.93, 2.67, 11.46, repro,
2011-02-05,-4.29, 2.60, -9.60, 1.92, 2.63, 11.15, repro,
2011-02-06,-2.47, -0.89, -26.83, 2.02, 2.70, 11.50, repro,
2011-02-07,-4.29, 1.16, -28.95, 2.01, 2.71, 11.94, repro,
2011-02-08,-3.33, 1.61, -14.82, 2.11, 2.70, 12.09, repro,
2011-02-09,-1.61, -1.28, -19.92, 1.90, 2.62, 10.92, repro,
2011-02-10,-2.29, 1.05, -27.35, 1.91, 2.53, 10.79, repro,
2011-02-11,-2.38, 0.60, -29.79, 2.01, 2.85, 11.61, repro,
2011-02-12,-3.76, 3.27, -23.41, 1.94, 2.59, 11.20, repro,
2011-02-13,-1.57, -0.92, -12.27, 1.98, 2.71, 11.67, repro,
2011-02-14,-0.33, 3.03, -21.64, 1.93, 2.64, 11.30, repro,
2011-02-15,-2.69, -0.39, -30.55, 2.03, 2.67, 12.02, repro,
2011-02-16,-0.21, 2.89, -33.26, 2.06, 2.74, 11.98, repro,
2011-02-17,-3.12, 2.41, -15.43, 2.13, 3.01, 12.47, repro,
2011-02-18,-2.18, 4.95, -19.38, 1.97, 2.66, 11.38, repro,
2011-02-19,-7.56, 0.06, -25.50, 2.07, 2.80, 12.05, repro,
2011-02-20,-2.22, 0.53, -9.69, 1.92, 2.60, 11.13, repro,
2011-02-21,-1.06, 1.37, -25.64, 1.87, 2.61, 10.99, repro,
2011-02-22,-3.74, 4.28, -12.91, 1.91, 2.64, 11.34, repro,
2011-02-23,-0.11, 5.95, -15.94, 2.00, 2.62, 11.27, repro,
2011-02-24,-2.83, -0.44, -21.75, 1.91, 2.61, 11.25, repro,
2011-02-25,-3.33, 2.04, -15.55, 1.90, 2.55, 10.92, repro,
2011-02-26,15.59, -87.38, 91.81, 33.20, 114.90, 124.80, repro,
2011-05-16,-0.49, 6.00, 4.66, 3.90, 5.57, 22.41, repro,
2011-05-17,-5.39, 2.10, -15.57, 2.05, 2.81, 12.02, repro,
2011-05-18,-4.48, 0.37, -11.66, 2.03, 2.75, 11.96, repro,
2011-05-19,-1.63, -4.12, -18.96, 2.03, 2.78, 12.07, repro,
2011-05-20,-8.07, -2.38, -18.80, 1.96, 2.66, 11.50, repro,
2011-05-21,-6.13, -2.31, -14.34, 2.00, 2.74, 11.92, repro,
2011-05-22,-4.84, -2.55, -10.00, 2.03, 2.80, 12.06, repro,
2011-05-23,-2.75, -3.47, -16.09, 2.01, 2.73, 11.92, repro,
2011-05-24,-4.25, -0.65, -17.60, 2.01, 2.79, 12.12, repro,
2011-05-25,-1.24, -1.27, -13.33, 2.06, 2.81, 12.32, repro,
2011-05-26,-3.48, -0.73, -22.47, 2.02, 2.85, 12.35, repro,
2011-05-27,-2.72, -1.72, -20.29, 2.01, 2.80, 12.21, repro,
2011-05-28,0.13, 3.60, -4.89, 2.07, 2.84, 12.45, repro,
2011-05-29,-3.87, 5.50, -8.44, 2.07, 3.01, 12.66, repro,
2011-05-30,-1.58, -2.24, -24.59, 2.01, 2.84, 12.25, repro,
2011-05-31,-4.05, 2.53, -8.85, 1.97, 2.76, 11.85, repro,
2011-06-01,-6.46, -0.44, -21.10, 2.44, 3.36, 14.36, repro,
2011-06-02,-4.00, 1.87, -29.28, 2.06, 2.98, 12.53, repro,
2011-06-03,-3.56, 1.40, -18.15, 1.93, 2.73, 11.59, repro,
2011-06-04,-3.69, -1.25, -24.02, 2.06, 2.97, 12.15, repro,
2011-06-05,-2.05, 1.91, -26.95, 2.02, 2.76, 11.95, repro,
2011-06-06,0.03, -3.00, -30.30, 1.99, 2.73, 11.84, repro,
2011-06-07,-3.95, 3.85, -5.79, 2.00, 2.78, 11.86, repro,
2011-06-08,-4.48, 2.51, 5.59, 1.98, 2.68, 11.88, repro,
2011-06-09,0.15, -0.99, -8.41, 2.02, 2.72, 12.29, repro,
2011-06-10,-0.45, 1.66, -1.83, 2.03, 2.77, 12.03, repro,
2011-06-11,-3.09, 0.66, -20.55, 2.03, 2.83, 12.07, repro,
2011-06-12,-4.51, 2.86, -2.97, 2.07, 2.83, 12.55, repro,
2011-06-13,-0.82, -0.03, -13.33, 1.97, 2.68, 11.79, repro,
2011-06-14,-2.79, -1.75, -4.49, 2.00, 2.69, 11.85, repro,
2011-06-15,-2.87, 0.50, -21.45, 2.00, 2.69, 11.90, repro,
2011-06-16,-1.33, 0.12, -20.02, 1.98, 2.76, 11.90, repro,
2011-06-17,-0.22, 3.72, -12.26, 2.09, 2.76, 12.24, repro,
2011-06-18,-5.02, 0.42, -30.86, 2.05, 2.71, 12.01, repro,
2011-06-19,-4.18, -1.65, -31.94, 2.22, 2.90, 13.23, repro,
2011-06-20,-2.00, -5.19, -28.31, 2.29, 2.93, 13.27, repro,
2011-06-21,-5.70, 0.93, -12.42, 2.01, 2.86, 12.08, repro,
2011-06-22,-0.83, -1.71, -34.64, 2.08, 2.75, 12.11, repro,
2011-06-23,-2.11, 1.45, -40.26, 2.12, 2.77, 12.50, repro,
2011-06-24,-3.21, -1.16, -32.47, 2.02, 2.64, 11.78, repro,
2011-06-25,-6.98, 0.52, -31.81, 2.00, 2.70, 11.92, repro,
2011-06-26,-0.73, -0.27, -40.20, 2.00, 2.75, 12.03, repro,
2011-06-27,-0.61, -1.47, -26.39, 1.97, 2.69, 11.86, repro,
2011-06-28,-2.22, -0.72, -18.36, 2.10, 2.94, 12.53, repro,
2011-06-29,-3.33, -0.03, -29.61, 1.99, 2.64, 11.83, repro,
2011-06-30,-1.65, -1.33, -31.33, 2.04, 2.68, 11.87, repro,
2011-07-01,0.81, 2.37, -4.59, 2.06, 2.84, 12.65, repro,
2011-07-02,-6.28, 2.27, -32.65, 2.05, 2.71, 12.07, repro,
2011-07-03,-2.87, -2.73, -31.99, 2.00, 2.70, 12.07, repro,
2011-07-04,-6.90, -2.86, -52.50, 2.01, 2.67, 12.14, repro,
2011-07-05,-5.67, -0.77, -26.25, 2.11, 2.92, 12.69, repro,
2011-07-06,-2.88, -5.30, -40.09, 2.17, 2.78, 12.77, repro,
2011-07-07,-4.82, 0.40, -33.19, 2.12, 2.92, 12.64, repro,
2011-07-08,-3.13, 0.20, -31.91, 2.08, 2.78, 12.06, repro,
2011-07-09,-3.11, -0.75, -27.86, 1.97, 2.65, 11.78, repro,